TimePDT,TemperatureF,Dew PointF,Humidity,Sea Level PressureIn,VisibilityMPH,Wind Direction,Wind SpeedMPH,Gust SpeedMPH,PrecipitationIn,Events,Conditions,WindDirDegrees,DateUTC
12:42 AM,66.2,62.6,88,30.00,10.0,Calm,Calm,-,N/A,,Scattered Clouds,0,2012-10-19 07:42:00
12:53 AM,66.9,63.0,87,30.00,10.0,Calm,Calm,-,N/A,,Mostly Cloudy,0,2012-10-19 07:53:00
1:01 AM,66.2,62.6,88,30.01,10.0,Calm,Calm,-,N/A,,Scattered Clouds,0,2012-10-19 08:01:00
1:53 AM,66.0,62.1,87,29.99,10.0,Calm,Calm,-,N/A,,Clear,0,2012-10-19 08:53:00
2:53 AM,64.9,60.1,84,29.98,10.0,Calm,Calm,-,N/A,,Clear,0,2012-10-19 09:53:00
3:53 AM,64.0,59.0,84,29.95,10.0,NE,3.5,-,N/A,,Clear,50,2012-10-19 10:53:00
4:53 AM,64.0,59.0,84,29.95,10.0,Calm,Calm,-,N/A,,Clear,0,2012-10-19 11:53:00
5:53 AM,64.0,59.0,84,29.95,10.0,Calm,Calm,-,N/A,,Clear,0,2012-10-19 12:53:00
6:53 AM,61.0,57.9,90,29.96,10.0,Calm,Calm,-,N/A,,Clear,0,2012-10-19 13:53:00
7:53 AM,64.0,59.0,84,29.98,10.0,Calm,Calm,-,N/A,,Clear,0,2012-10-19 14:53:00
8:34 AM,66.2,60.8,83,30.00,10.0,Calm,Calm,-,N/A,,Partly Cloudy,0,2012-10-19 15:34:00
8:49 AM,66.2,60.8,83,30.00,9.0,Calm,Calm,-,N/A,,Mostly Cloudy,0,2012-10-19 15:49:00
8:53 AM,66.0,61.0,84,30.00,8.0,West,4.6,-,N/A,,Mostly Cloudy,280,2012-10-19 15:53:00
9:41 AM,69.8,62.6,78,30.00,8.0,WSW,6.9,-,N/A,,Scattered Clouds,240,2012-10-19 16:41:00
9:53 AM,68.0,62.1,81,29.99,8.0,West,4.6,-,N/A,,Partly Cloudy,260,2012-10-19 16:53:00
10:53 AM,70.0,62.1,76,29.98,8.0,West,5.8,-,N/A,,Partly Cloudy,280,2012-10-19 17:53:00
11:53 AM,73.0,63.0,71,29.96,10.0,Variable,6.9,-,N/A,,Clear,0,2012-10-19 18:53:00
12:53 PM,72.0,63.0,73,29.94,10.0,West,8.1,-,N/A,,Mostly Cloudy,270,2012-10-19 19:53:00
1:53 PM,71.1,63.0,75,29.92,10.0,Variable,5.8,-,N/A,,Mostly Cloudy,0,2012-10-19 20:53:00
2:53 PM,70.0,62.1,76,29.91,10.0,WNW,4.6,-,N/A,,Overcast,300,2012-10-19 21:53:00
3:53 PM,69.1,63.0,81,29.90,10.0,Variable,3.5,-,N/A,,Overcast,0,2012-10-19 22:53:00
4:53 PM,69.1,63.0,81,29.89,10.0,WNW,4.6,-,N/A,,Overcast,300,2012-10-19 23:53:00
5:40 PM,68.0,62.6,83,29.89,10.0,Variable,3.5,-,N/A,,Overcast,0,2012-10-20 00:40:00
5:53 PM,68.0,62.1,81,29.89,10.0,West,4.6,-,N/A,,Overcast,270,2012-10-20 00:53:00
6:53 PM,68.0,63.0,84,29.90,10.0,NNW,3.5,-,N/A,,Overcast,330,2012-10-20 01:53:00
7:53 PM,66.9,62.1,84,29.90,10.0,Variable,3.5,-,N/A,,Overcast,0,2012-10-20 02:53:00
8:53 PM,66.9,63.0,87,29.91,10.0,NNW,3.5,-,N/A,,Overcast,340,2012-10-20 03:53:00
9:53 PM,66.9,62.1,84,29.91,10.0,Calm,Calm,-,N/A,,Overcast,0,2012-10-20 04:53:00
10:53 PM,66.9,62.1,84,29.91,10.0,Calm,Calm,-,N/A,,Overcast,0,2012-10-20 05:53:00
11:53 PM,66.9,62.1,84,29.90,10.0,East,3.5,-,N/A,,Overcast,100,2012-10-20 06:53:00